Regional Weather Roundup
Issued by NWS

Home | Current Version | Previous Version | Text Only | Print | Product List | Glossary On
Versions: 1 2 3 4 5 6 7 8 9 10 11 12 13 14 15 16 17 18 19 20 21 22 23 24 25 26 27 28 29 30 31 32 33 34 35 36 37 38 39 40 41 42 43 44 45 46 47 48 49 50
773
ASPQ40 PGUM 181212
RWRPQ
WEATHER ROUNDUP FOR THE MARIANAS AND MICRONESIA
NATIONAL WEATHER SERVICE TIYAN GU
1000 PM CHST WED OCT 18 2017

GUZ001>004-181300-
MARIANA ISLANDS-

CITY           SKY/WX    TMP DP  RH WIND       PRES   REMARKS
GUAM AIRPORT   CLOUDY    75  75 100 W18G31    29.87R
ANDERSEN AFB   MOCLDY    75  73  94 W30G41    29.87R
ROTA AIRPORT   NOT AVBL
TINIAN AP      NOT AVBL
SAIPAN AP      CLOUDY    81  79  94 W22G32    29.77R

$$

PMZ161-181300-
REPUBLIC OF PALAU-

CITY           SKY/WX    TMP DP  RH WIND       PRES   REMARKS
KOROR AP       CLOUDY    84  77  79 SW13G23   29.70R HX  94
KOROR WSO      CLOUDY    86  77  74 SW6G22    29.71R HX  97

$$

PMZ171>174-181300-
FEDERATED STATES OF MICRONESIA-

CITY           SKY/WX    TMP DP  RH WIND       PRES   REMARKS
YAP AIRPORT    CLOUDY    84  79  84 S14G23    29.72R HX  96
CHUUK AP       CLOUDY    82  79  89 N8        29.83R HX  93
POHNPEI AP     CLOUDY    79  77  94 S6        29.81S
POHNPEI WSO    CLOUDY    77  75  94 SE5       29.85
KOSRAE AP      NOT AVBL

$$

PMZ181-181300-
REPUBLIC OF THE MARSHALL ISLANDS-

CITY           SKY/WX    TMP DP  RH WIND       PRES   REMARKS
KWAJALEIN AP   MOCLDY    82  75  78 N12       29.83S
MAJURO AP      NOT AVBL
MAJURO WSO     MOCLDY    82  73  74 W7        29.80F

$$





USA.gov is the U.S. government's official web portal to all federal, state and local government web resources and services.